San Jose, CA

1:53 PM PDT on April 26, 2017 (GMT -0700)
San Jose International

Weather History for KSJC - November, 2012

Change the Weather History Date:

Monday, November 12, 2012

  Actual Average Record
Temperature  
Mean Temperature 51 °F 56 °F  
Max Temperature 63 °F 65 °F 80 °F (1904)
Min Temperature 39 °F 47 °F 30 °F (1896)
Degree Days  
Heating Degree Days 14 9  
Month to date heating degree days 87 90  
Since 1 July heating degree days 115 200  
Cooling Degree Days 0 0  
Month to date cooling degree days 4 0  
Year to date cooling degree days 483 636  
Growing Degree Days 2 (Base 50)    
Moisture  
Dew Point 37 °F    
Average Humidity 61    
Maximum Humidity 82    
Minimum Humidity 39    
Precipitation  
Precipitation 0.00 in 0.05 in 0.85 in (2001)
Month to date precipitation 0.20 0.55  
Year to date precipitation 6.10 12.08  
Since 1 July precipitation 0.56  
Sea Level Pressure  
Sea Level Pressure 30.32 in    
Wind  
Wind Speed 3 mph (SW)    
Max Wind Speed 12 mph    
Max Gust Speed 14 mph    
Visibility 10 miles    
Events      
T = Trace of Precipitation, MM = Missing Value Source: NWS Daily Summary

Daily Weather History Graph

Daily Weather History Graph

Search for Another Location

Airport or City:

Trip Planner

Search our weather history database for the weather conditions in past years. The results will help you decide how hot, cold, wet, or windy it might be!

Date:

Astronomy

Nov. 12, 2012 Rise Set
Actual Time 6:44 AM PST 4:58 PM PST
Civil Twilight 6:16 AM PST 5:26 PM PST
Nautical Twilight 5:45 AM PST 5:58 PM PST
Astronomical Twilight 5:14 AM PST 6:28 PM PST
Moon 5:17 AM PST (11/12) 4:07 PM PST (11/12)
Length of Visible Light 11h 09m
Length of Day
10h 14m
Waning Crescent, 2% of the Moon is Illuminated
Nov 12
Waning Crescent
Nov 13
New
Nov 20
First Quarter
Nov 28
Full
Dec 6
Last Quarter

Hourly Weather History & Observations

Time (PST) Temp. Windchill Dew Point Humidity Pressure Visibility Wind Dir Wind Speed Gust Speed Precip Events Conditions
12:53 AM 43.0 °F 40.3 °F 36.0 °F 76% 30.38 in 10.0 mi East 4.6 mph - N/A   Clear
1:53 AM 43.0 °F 41.3 °F 36.0 °F 76% 30.38 in 10.0 mi ESE 3.5 mph - N/A   Clear
2:53 AM 43.0 °F - 37.0 °F 80% 30.37 in 10.0 mi Calm Calm - N/A   Clear
3:53 AM 43.0 °F - 37.0 °F 80% 30.38 in - Calm Calm - N/A   Clear
4:53 AM 42.1 °F 40.2 °F 37.0 °F 82% 30.37 in - SE 3.5 mph - N/A   Clear
5:53 AM 41.0 °F - 36.0 °F 82% 30.37 in 10.0 mi Calm Calm - N/A   Clear
6:53 AM 41.0 °F - 36.0 °F 82% 30.38 in 10.0 mi Calm Calm - N/A   Clear
7:53 AM 44.1 °F - 37.0 °F 76% 30.38 in 10.0 mi Calm Calm - N/A   Clear
8:53 AM 48.0 °F - 37.0 °F 66% 30.38 in 10.0 mi Calm Calm - N/A   Clear
9:53 AM 53.1 °F - 37.9 °F 57% 30.38 in 10.0 mi Calm Calm - N/A   Clear
10:53 AM 55.9 °F - 39.0 °F 53% 30.36 in 10.0 mi Calm Calm - N/A   Clear
11:53 AM 60.1 °F - 37.9 °F 44% 30.33 in 10.0 mi West 5.8 mph - N/A   Clear
12:53 PM 61.0 °F - 37.9 °F 42% 30.31 in 10.0 mi NW 5.8 mph - N/A   Clear
1:53 PM 62.1 °F - 37.0 °F 39% 30.29 in 10.0 mi NW 5.8 mph - N/A   Clear
2:53 PM 62.1 °F - 37.0 °F 39% 30.27 in 10.0 mi WNW 9.2 mph - N/A   Clear
3:53 PM 61.0 °F - 37.9 °F 42% 30.27 in 10.0 mi WNW 9.2 mph - N/A   Clear
4:53 PM 57.9 °F - 39.0 °F 49% 30.25 in 10.0 mi West 10.4 mph - N/A   Clear
5:53 PM 57.0 °F - 39.0 °F 51% 30.26 in 10.0 mi West 6.9 mph - N/A   Clear
6:53 PM 55.0 °F - 39.0 °F 55% 30.27 in 10.0 mi Calm Calm - N/A   Clear
7:53 PM 54.0 °F - 37.9 °F 55% 30.27 in 10.0 mi SSE 3.5 mph - N/A   Clear
8:53 PM 52.0 °F - 37.9 °F 59% 30.29 in 10.0 mi South 3.5 mph - N/A   Clear
9:53 PM 48.9 °F - 37.9 °F 66% 30.29 in 10.0 mi South 4.6 mph - N/A   Clear
10:53 PM 50.0 °F - 37.9 °F 63% 30.29 in 10.0 mi East 3.5 mph - N/A   Clear
11:53 PM 46.0 °F - 37.0 °F 71% 30.27 in 10.0 mi Calm Calm - N/A   Clear